Content
SEND FEEDBACK

Daily
Averages
Monthly
Summary
United States of America

WENONAH, ILLINOIS


Home > North America > United States > Illinois
Elevation: 636 feet     Latitude: 39 22N     Longitude: 089 24W

WEATHER
 
SELECT A DAY
Number of Records: 325,473;   Date Range: 8/13/01 - 12/23/14
 
SHARE

PRINT THIS DATA

[ ← Previous Day ]
WEATHER ALMANAC - JANUARY 31, 2013
[ Next Day → ]
[ °C ]   °F
Weather ElementAverageHighLow
Temperature19.9 °F28.4 °F (12:15 pm)6.8 °F (10:35 pm)
Dewpoint11.4 °F17.6 °F (7:35 am)-0.4 °F (9:35 pm)
Humidity69.9 %85 % (8:35 pm)63 % (2:35 pm)
Barometer30.01 in30.30 in (11:15 pm)29.85 in (12:35 am)
Wind Speed17.7 mph26.5 mph (5:55 pm)
Wind Gust34.5 mph (12:35 am)
Weather ElementAverage
Visibility9.5 mi
Wind DirectionWNW (280.3 °)

Weather ElementTotal
Precipitation---
Heating Degree Days47.4 (Base 65)
Averaged from 70 records on January 31, 2013
WEATHER CONDITIONS BREAKOUT
WIND DIRECTION BREAKOUT
WEATHER BY HOUR - JANUARY 31, 2013
[ °C ]   °F
Local TimeTemperatureDewpointHumidityBarometerVisibilityWind DirectionWind SpeedGust SpeedPrecipitationEventsConditions
12:35 AM21.2 °F12.2 °F68 %29.85 in10.0 miWest (270°)23.0 mph34.5 mphMostly Cloudy
12:55 AM21.2 °F12.2 °F68 %29.86 in10.0 miWest (280°)19.6 mph32.2 mphScattered Clouds
1:15 AM21.2 °F12.2 °F68 %29.86 in10.0 miWest (280°)21.9 mph27.6 mphClear
1:35 AM21.2 °F12.2 °F68 %29.87 in10.0 miWest (280°)15.0 mph21.9 mphClear
1:55 AM21.2 °F12.2 °F68 %29.87 in10.0 miWest (280°)13.8 mph20.7 mphClear
2:15 AM21.2 °F12.2 °F68 %29.87 in10.0 miWest (270°)12.7 mph16.1 mphClear
2:35 AM21.2 °F14.0 °F74 %29.88 in10.0 miWest (260°)9.2 mphClear
2:55 AM21.2 °F15.8 °F80 %29.87 in10.0 miWSW (250°)9.2 mphMostly Cloudy
3:15 AM23.0 °F15.8 °F74 %29.87 in10.0 miWest (260°)16.1 mph19.6 mphOvercast
3:35 AM23.0 °F15.8 °F74 %29.86 in10.0 miWest (260°)16.1 mph21.9 mphOvercast
3:55 AM24.8 °F15.8 °F69 %29.86 in10.0 miWSW (250°)18.4 mph24.2 mphOvercast
4:15 AM24.8 °F15.8 °F69 %29.86 in10.0 miWSW (250°)13.8 mph21.9 mphOvercast
4:35 AM24.8 °F15.8 °F69 %29.87 in10.0 miWSW (250°)13.8 mph18.4 mphOvercast
4:55 AM23.0 °F15.8 °F74 %29.87 in10.0 miWest (260°)15.0 mph23.0 mphOvercast
5:15 AM23.0 °F15.8 °F74 %29.87 in10.0 miWest (260°)12.7 mph18.4 mphScattered Clouds
5:35 AM23.0 °F14.0 °F68 %29.87 in10.0 miWSW (250°)11.5 mphScattered Clouds
5:55 AM23.0 °F15.8 °F74 %29.87 in10.0 miWSW (250°)13.8 mph20.7 mphOvercast
6:15 AM24.8 °F15.8 °F69 %29.88 in10.0 miWSW (250°)13.8 mph18.4 mphOvercast
6:35 AM24.8 °F15.8 °F69 %29.88 in10.0 miWSW (250°)17.3 mph23.0 mphOvercast
6:55 AM24.8 °F15.8 °F69 %29.89 in10.0 miWest (260°)19.6 mph25.3 mphSnowLight Snow
7:15 AM24.8 °F15.8 °F69 %29.90 in10.0 miWest (260°)17.3 mph26.5 mphOvercast
7:35 AM24.8 °F17.6 °F74 %29.90 in10.0 miWest (260°)16.1 mph21.9 mphOvercast
7:55 AM24.8 °F17.6 °F74 %29.90 in10.0 miWest (270°)12.7 mph17.3 mphOvercast
8:15 AM24.8 °F17.6 °F74 %29.92 in10.0 miWest (260°)18.4 mph24.2 mphOvercast
8:35 AM24.8 °F17.6 °F74 %29.92 in10.0 miWest (260°)16.1 mph24.2 mphSnowLight Snow
8:55 AM24.8 °F17.6 °F74 %29.93 in7.0 miWest (270°)16.1 mph25.3 mphSnowLight Snow
9:15 AM24.8 °F17.6 °F74 %29.94 in7.0 miWest (260°)16.1 mphSnowLight Snow
9:35 AM24.8 °F17.6 °F74 %29.95 in7.0 miWest (280°)15.0 mph20.7 mphSnowLight Snow
9:55 AM24.8 °F17.6 °F74 %29.96 in10.0 miWest (270°)13.8 mph18.4 mphOvercast
10:15 AM26.6 °F15.8 °F64 %29.97 in10.0 miWest (270°)18.4 mph24.2 mphOvercast
10:35 AM26.6 °F15.8 °F64 %29.97 in10.0 miWest (270°)16.1 mph27.6 mphOvercast
10:55 AM26.6 °F15.8 °F64 %29.98 in10.0 miWNW (290°)12.7 mphMostly Cloudy
11:15 AM26.6 °F17.6 °F69 %29.98 in10.0 miWest (280°)11.5 mph19.6 mphMostly Cloudy
11:35 AM26.6 °F15.8 °F64 %29.97 in10.0 miWest (270°)17.3 mph25.3 mphMostly Cloudy
11:55 AM26.6 °F17.6 °F69 %29.97 in10.0 miWNW (290°)17.3 mph23.0 mphMostly Cloudy
12:15 PM28.4 °F17.6 °F64 %29.96 in10.0 miWest (280°)12.7 mph20.7 mphMostly Cloudy
12:35 PM26.6 °F17.6 °F69 %29.96 in10.0 miWest (280°)13.8 mph24.2 mphScattered Clouds
12:55 PM26.6 °F17.6 °F69 %29.96 in10.0 miWest (280°)21.9 mph27.6 mphMostly Cloudy
1:15 PM26.6 °F15.8 °F64 %29.96 in10.0 miWNW (290°)18.4 mph28.8 mphMostly Cloudy
1:35 PM26.6 °F15.8 °F64 %29.96 in10.0 miWNW (300°)18.4 mph24.2 mphMostly Cloudy
1:55 PM24.8 °F15.8 °F69 %29.97 in10.0 miWNW (300°)15.0 mph26.5 mphMostly Cloudy
2:15 PM24.8 °F15.8 °F69 %29.97 in10.0 miNW (310°)17.3 mph23.0 mphScattered Clouds
2:35 PM23.0 °F12.2 °F63 %29.98 in10.0 miWNW (290°)20.7 mph26.5 mphScattered Clouds
2:55 PM21.2 °F12.2 °F68 %30.00 in10.0 miWNW (300°)21.9 mph28.8 mphScattered Clouds
3:15 PM21.2 °F12.2 °F68 %30.01 in10.0 miWNW (300°)19.6 mph28.8 mphMostly Cloudy
3:35 PM19.4 °F10.4 °F68 %30.03 in10.0 miWNW (290°)24.2 mph34.5 mphOvercast
3:55 PM19.4 °F8.6 °F63 %30.04 in10.0 miWNW (300°)23.0 mph32.2 mphOvercast
4:15 PM19.4 °F10.4 °F68 %30.06 in10.0 miNW (310°)23.0 mph34.5 mphOvercast
4:35 PM17.6 °F8.6 °F68 %30.07 in10.0 miWNW (300°)23.0 mph32.2 mphOvercast
4:55 PM15.8 °F6.8 °F68 %30.09 in10.0 miWNW (290°)23.0 mph28.8 mphMostly Cloudy
5:15 PM15.8 °F8.6 °F73 %30.10 in7.0 miWNW (290°)21.9 mph27.6 mphScattered Clouds
5:35 PM14.0 °F5.0 °F67 %30.11 in10.0 miWNW (300°)20.7 mph29.9 mphMostly Cloudy
5:55 PM12.2 °F3.2 °F67 %30.13 in10.0 miWNW (300°)26.5 mph32.2 mphScattered Clouds
6:15 PM12.2 °F3.2 °F67 %30.14 in10.0 miWNW (300°)19.6 mph29.9 mphMostly Cloudy
6:35 PM12.2 °F3.2 °F67 %30.15 in10.0 miWNW (300°)21.9 mph32.2 mphScattered Clouds
6:55 PM12.2 °F3.2 °F67 %30.16 in10.0 miWNW (300°)13.8 mph27.6 mphMostly Cloudy
7:15 PM12.2 °F3.2 °F67 %30.17 in10.0 miWNW (290°)16.1 mph26.5 mphOvercast
7:35 PM12.2 °F3.2 °F67 %30.18 in10.0 miWNW (290°)18.4 mph26.5 mphOvercast
7:55 PM12.2 °F3.2 °F67 %30.18 in10.0 miWNW (300°)20.7 mph27.6 mphOvercast
8:15 PM12.2 °F5.0 °F73 %30.20 in4.0 miNW (310°)17.3 mph34.5 mphSnowLight Snow
8:35 PM10.4 °F6.8 °F85 %30.21 in7.0 miNW (310°)17.3 mph26.5 mphSnowLight Snow
8:55 PM10.4 °F5.0 °F79 %30.22 in1.2 miWNW (300°)21.9 mph32.2 mphSnowLight Snow
9:15 PM8.6 °F3.2 °F79 %30.24 in5.0 miWNW (290°)23.0 mph29.9 mphSnowLight Snow
9:35 PM8.6 °F-0.4 °F67 %30.25 in10.0 miWNW (300°)21.9 mph31.1 mphClear
9:55 PM8.6 °F1.4 °F73 %30.26 in10.0 miWNW (290°)16.1 mph28.8 mphScattered Clouds
10:15 PM8.6 °F-0.4 °F67 %30.27 in10.0 miWest (280°)19.6 mph25.3 mphScattered Clouds
10:35 PM6.8 °F-0.4 °F72 %30.28 in10.0 miWNW (290°)21.9 mph29.9 mphScattered Clouds
10:55 PM6.8 °F-0.4 °F72 %30.29 in10.0 miWNW (290°)24.2 mph28.8 mphClear
11:15 PM6.8 °F-0.4 °F72 %30.30 in10.0 miWNW (300°)17.3 mph26.5 mphClear
11:35 PM6.8 °F-0.4 °F72 %30.30 in10.0 miWNW (290°)18.4 mph23.0 mphClear
Hourly data recorded from KTAZ, located miles away from Wenonah, Illinois







STORIES FROM OUR PARTNERS